Orbital Elements at Epoch 2459200.5 (2020-Dec-17.0) TDB
Reference: JPL 19 (heliocentric ecliptic J2000)
Element | Value | Uncertainty (1-sigma) | Units |
e | .2156288344545209 | 4.5862e-08 | |
a | 2.590766042270426 | 1.3064e-08 | au |
q | 2.032122180231302 | 1.2435e-07 | au |
i | 12.97121860198446 | 5.8823e-06 | deg |
node | 1.804387463608539 | 1.9523e-05 | deg |
peri | 114.9212084791994 | 2.466e-05 | deg |
M | 302.8152023351898 | 1.7054e-05 | deg |
tp | 2459442.446201926973 (2021-Aug-15.94620193) | 7.3296e-05 | TDB |
period | 1523.143147314296 4.17 | 1.1521e-05 3.154e-08 | d yr |
n | .2363533595872293 | 1.7877e-09 | deg/d |
Q | 3.149409904309549 | 1.5881e-08 | au |
|
| | Orbit Determination Parameters
Additional Information
|